Terug naar catalogus

HAIYANG 1D

ActiefWetenschapSSO
NORAD 45721·PAYLOAD·🇨🇳 China

Gelanceerd Jun 10, 2020 vanaf Taiyuan Satellite Launch Center

Loading…

Volgende Passages (komende 24 uur)

TLE

VersSource: Space-Track

Epoch: Sep 14, 2026, 14:56 UTC

1 45721U 20036A   26257.62251145 -.00000055  00000-0 -43956-5 0  9992
2 45721  98.4605 197.3759 0001557 233.7872 126.3170 14.34196775327799

Volg HAIYANG 1D in realtime met AllMySat

Download on the App Store